Wind_Speed
17 19 19 21 22 21 19 7 1 1 9 1 1 1 1 3 2 3 2 1 4 5 5 3 4 6 7 4 13 13 10 3 6 1 1 4 1 6 7 7 6 1 3 5
15 17 18 19 20 21 22 10 4 5 5 0 1 1 2 2 3 3 3 2 1 0 3 4 6 6 5 8 12 13 11 8 4 5 5 2 4 5 4 4 2 7 9 6
15 15 16 16 17 17 16 6 1 4 4 4 2 3 2 2 2 2 1 2 1 2 3 4 7 4 2 2 8 5 18 6 9 9 7 5 6 8 9 6 6 7 11 11
14 14 15 14 15 15 10 6 2 2 3 2 4 2 2 3 2 2 2 2 3 3 3 3 5 5 7 6 8 1 6 9 5 2 5 5 11 12 11 10 6 8 5 10
15 14 14 13 12 12 5 3 3 3 3 3 4 1 2 3 1 2 3 4 1 4 5 5 9 8 4 4 3 1 3 5 4 3 4 3 7 7 9 8 5 5 5 8
13 15 13 12 10 9 3 4 3 2 1 2 3 1 1 2 6 6 10 6 9 10 11 8 10 16 24 19 10 4 3 7 6 6 3 4 5 13 11 6 6 7 8 4
11 11 12 12 9 7 5 4 2 1 2 3 3 3 5 10 11 11 13 16 7 5 16 25 24 23 23 20 16 16 3 4 2 5 8 6 1 1 4 8 5 8 3 5
13 12 8 9 10 6 5 4 1 2 4 5 9 6 4 7 9 12 14 16 15 16 12 4 6 5 6 2 6 13 14 4 5 6 6 3 3 5 7 8 7 9 6 5
11 11 10 10 8 9 7 4 2 3 3 3 5 3 6 5 4 4 5 9 12 6 4 4 4 6 4 3 2 5 8 3 4 4 6 8 6 7 7 6 7 12 13 7
10 10 9 10 6 7 7 4 5 5 5 12 10 6 3 2 1 5 8 7 4 0 2 4 5 5 5 5 3 6 6 2 5 6 4 3 5 10 11 9 2 5 16 10
12 10 9 8 7 4 7 6 6 8 9 19 22 19 19 14 10 4 5 7 1 2 3 3 2 4 8 5 5 4 7 7 4 3 3 6 15 11 9 5 5 5 9 12
11 10 9 7 6 4 7 9 6 10 12 14 15 22 27 21 16 7 5 5 3 3 3 2 3 3 4 9 4 2 5 4 7 6 6 2 29 3 9 9 9 8 11 12
10 9 10 7 6 6 9 10 9 11 14 19 12 8 8 7 17 24 15 10 8 4 1 3 3 5 3 4 5 2 2 1 2 4 6 7 22 6 14 11 10 10 10 11
13 9 9 9 8 7 9 12 10 10 7 5 6 8 23 19 17 18 27 19 5 1 5 4 2 3 2 2 2 1 2 4 5 2 1 5 13 9 11 12 12 12 10 8
15 9 9 9 8 8 10 13 12 11 8 4 16 24 4 7 8 20 18 24 21 8 4 2 3 4 4 3 1 3 4 3 4 4 12 5 11 23 15 13 13 11 8 9
8 8 9 8 6 6 7 4 1 8 17 5 4 9 5 9 4 14 18 18 13 7 5 4 4 6 3 4 2 4 4 7 11 5 9 7 11 21 16 14 13 9 10 11
7 8 8 5 6 7 8 4 6 4 4 4 5 5 4 3 6 6 9 12 8 8 4 4 4 10 8 3 5 4 7 9 6 2 12 9 14 13 18 14 12 14 13 15
7 5 4 5 7 9 11 7 13 11 6 4 3 4 5 2 3 5 8 9 9 9 4 3 3 6 5 5 10 9 16 11 3 11 4 5 12 21 17 15 19 16 15 18
4 3 4 5 6 4 2 2 6 7 6 3 3 3 3 7 0 3 6 7 3 6 4 4 4 2 5 8 6 5 19 11 5 15 4 12 17 19 19 20 17 15 16 16
2 2 3 3 3 4 4 1 3 7 5 6 4 3 4 4 2 1 2 5 3 3 4 5 4 4 20 28 24 16 10 8 4 4 8 12 17 22 23 19 17 15 16 16
2 2 3 4 7 4 4 3 4 4 3 5 5 7 4 3 3 1 4 2 3 2 3 3 3 3 5 10 25 27 22 15 7 6 9 11 17 23 21 20 19 16 14 16
3 4 7 5 2 1 1 2 3 4 2 3 3 4 7 4 4 3 3 2 2 2 7 2 3 2 12 18 14 15 23 19 12 8 15 14 20 22 24 22 20 18 15 15
3 2 2 2 1 1 4 3 3 2 2 2 7 4 3 3 5 4 2 2 2 1 2 3 3 10 18 15 12 6 19 19 14 13 13 13 18 20 23 24 22 19 19 17
2 1 3 3 3 4 3 1 2 2 4 5 8 6 3 3 3 1 3 0 2 2 3 2 4 15 20 11 10 1 11 10 12 14 15 15 14 22 26 27 23 22 21 19
2 2 3 5 6 5 6 9 6 5 13 7 7 6 3 2 2 1 1 2 3 2 1 3 16 18 17 9 10 4 12 8 9 13 15 15 14 16 26 28 25 23 22 22
3 4 4 5 5 7 4 3 5 11 15 9 4 1 1 1 2 2 4 2 1 4 2 7 15 22 15 11 14 12 5 11 11 11 12 15 15 11 18 25 26 23 21 23
3 5 8 12 13 12 12 5 7 9 6 1 2 3 1 2 3 2 1 2 0 5 7 10 14 13 12 14 10 12 17 3 3 9 13 16 19 17 13 17 24 23 19 16
Wind_Direction
345 348 347 349 349 353 355 2 151 293 360 164 32 191 249 313 307 19 353 282 259 264 296 266 251 232 238 189 150 179 203 226 235 196 358 261 196 165 186 224 186 119 293 234
345 347 349 351 354 358 358 350 334 5 16 190 105 329 285 279 345 16 23 294 304 304 294 296 244 246 244 236 180 173 167 218 181 151 139 160 183 147 139 136 154 201 231 228
340 342 347 351 355 358 358 360 337 13 59 60 21 2 1 287 329 203 28 296 6 280 260 250 283 278 335 352 232 185 170 171 226 212 188 142 164 173 172 202 210 203 226 236
330 332 336 344 350 358 359 11 60 22 347 65 343 298 306 294 285 344 299 159 117 36 287 273 250 302 314 231 153 175 209 200 182 105 136 162 163 170 179 192 187 215 221 217
321 324 332 337 343 354 9 19 4 342 291 310 292 232 217 254 278 287 258 256 265 290 255 278 298 322 319 330 356 142 271 147 153 127 139 154 170 193 202 218 196 231 220 229
332 330 324 333 343 4 25 5 350 325 304 318 280 252 271 172 2 270 260 287 318 282 284 293 291 283 271 265 286 309 293 147 177 157 148 149 227 214 205 201 208 222 203 210
296 312 329 328 334 352 13 358 328 287 260 261 237 283 298 291 292 265 284 304 290 274 305 301 285 268 259 257 243 223 297 138 95 125 159 216 14 245 222 227 216 197 209 175
291 305 310 323 319 317 336 339 303 242 271 273 278 271 255 299 292 272 268 275 269 296 302 266 289 193 211 160 221 200 214 247 110 161 192 334 233 198 179 188 205 204 219 206
306 296 282 289 313 315 309 312 237 230 285 251 251 308 296 293 291 293 256 294 311 267 241 232 239 226 166 45 253 155 181 229 140 153 178 211 224 172 153 145 238 205 211 208
306 300 294 282 277 301 308 282 233 242 262 269 263 255 253 265 312 302 293 326 324 113 230 232 226 236 170 148 230 182 177 132 138 162 177 224 226 153 149 192 215 188 200 187
317 307 298 292 258 279 289 279 250 250 261 273 266 259 260 263 256 245 317 310 82 273 249 250 246 250 205 198 150 241 172 164 160 113 153 232 159 139 195 184 151 160 170 181
314 317 311 294 248 259 275 281 267 273 272 260 261 267 264 248 240 222 245 284 322 287 290 281 289 276 248 211 215 122 255 217 167 195 204 73 177 157 171 160 148 155 174 191
313 317 318 290 237 247 270 277 285 286 286 294 277 284 296 217 235 243 236 252 224 220 77 290 286 266 281 193 223 281 206 38 160 156 189 203 187 146 174 154 155 164 178 188
306 300 313 301 230 251 267 275 273 272 281 281 296 312 301 282 256 233 219 222 229 189 352 299 275 280 292 237 32 308 270 161 183 222 139 133 199 185 166 163 162 160 164 178
311 304 313 299 232 253 280 279 270 247 241 288 295 310 5 346 228 215 218 221 236 268 316 262 253 285 300 253 253 225 196 204 205 197 190 161 190 190 173 161 161 167 177 169
301 299 300 285 230 273 290 300 242 230 233 269 300 308 318 338 290 200 206 205 210 214 222 245 263 266 263 264 194 285 320 311 263 287 141 130 147 173 175 172 173 177 167 164
291 296 296 248 252 254 244 233 166 55 340 255 289 289 292 337 67 117 162 189 203 197 221 243 233 286 309 266 215 202 320 330 284 185 130 109 153 156 163 176 169 158 156 156
293 293 280 266 268 273 277 274 254 265 265 260 281 277 301 342 204 143 162 170 189 194 214 254 226 271 236 252 245 181 281 298 339 164 145 167 163 152 161 173 164 158 159 164
270 270 273 280 253 246 219 278 242 203 218 272 247 283 294 339 269 142 171 173 188 191 210 216 195 236 229 247 251 223 223 239 206 185 170 148 162 157 163 164 168 169 172 171
237 265 231 249 235 270 298 347 201 197 218 226 251 244 266 306 303 162 217 189 192 205 214 164 233 249 232 249 251 249 212 222 242 208 159 174 171 172 170 173 180 182 183 180
182 217 253 281 298 287 200 239 189 186 229 219 242 233 253 250 240 261 228 223 178 243 147 230 223 257 238 249 255 245 232 228 252 256 205 207 197 185 176 183 186 183 180 185
208 277 290 300 293 270 252 229 184 217 252 190 248 263 226 258 232 251 200 258 167 249 147 235 248 274 350 331 310 244 222 224 234 223 200 216 216 208 194 189 185 185 181 181
262 285 281 241 250 249 228 219 214 215 152 92 291 277 233 241 229 246 254 240 240 140 222 241 268 358 345 339 342 238 212 219 236 230 215 221 221 221 216 206 195 187 188 190
226 228 288 230 213 238 213 255 320 283 195 271 285 278 239 208 218 224 240 175 253 249 236 225 328 338 334 350 348 310 189 219 229 223 211 217 218 221 224 220 210 202 198 200
252 231 236 229 245 272 280 290 285 310 311 284 292 257 252 250 270 221 318 228 247 261 354 310 315 327 335 350 355 223 223 233 224 223 219 215 221 228 217 216 215 214 212 212
234 237 268 268 284 286 286 285 287 300 282 275 197 255 227 243 270 246 218 238 14 337 273 310 333 329 344 8 19 33 225 234 238 230 224 216 213 234 220 211 212 217 225 225
245 241 245 262 278 272 275 281 294 312 308 300 259 213 235 142 229 244 217 354 142 279 297 291 314 329 6 354 1 39 45 32 242 230 223 220 214 215 214 205 208 213 229 242
Height
1515 1512 1509 1505 1501 1496 1492 1488 1488 1488 1488 1489 1492 1487 1489 1488 1485 1484 1483 1483 1482 1480 1479 1476 1475 1471 1465 1463 1467 1475 1474 1475 1482 1480 1479 1480 1476 1478 1481 1491 1510 1508 1501 1495
1514 1512 1509 1505 1502 1498 1494 1492 1490 1489 1488 1487 1488 1489 1488 1486 1485 1484 1484 1483 1483 1482 1480 1481 1473 1467 1462 1462 1463 1465 1470 1475 1487 1485 1480 1479 1476 1482 1484 1486 1489 1502 1501 1494
1513 1511 1509 1506 1503 1500 1498 1495 1492 1491 1490 1492 1492 1491 1488 1486 1486 1485 1485 1484 1484 1483 1480 1477 1471 1466 1461 1461 1461 1461 1460 1468 1468 1474 1469 1469 1480 1480 1482 1477 1488 1487 1486 1479
1511 1510 1508 1506 1504 1501 1500 1498 1498 1499 1494 1493 1495 1494 1491 1488 1486 1485 1485 1485 1484 1485 1484 1479 1475 1468 1465 1458 1459 1462 1461 1463 1470 1471 1467 1467 1470 1476 1481 1478 1478 1483 1476 1482
1510 1508 1506 1505 1503 1501 1501 1500 1500 1499 1498 1497 1495 1493 1489 1488 1488 1488 1483 1484 1483 1485 1484 1480 1480 1476 1472 1468 1461 1461 1463 1468 1467 1473 1471 1471 1472 1473 1475 1476 1479 1478 1478 1477
1509 1506 1505 1504 1503 1501 1500 1500 1500 1500 1498 1495 1495 1491 1490 1489 1492 1487 1485 1484 1485 1483 1480 1479 1478 1476 1473 1470 1472 1467 1465 1463 1464 1474 1474 1474 1480 1468 1470 1471 1473 1470 1477 1467
1506 1505 1504 1503 1501 1501 1500 1500 1500 1501 1494 1495 1491 1491 1492 1491 1491 1490 1485 1485 1484 1480 1479 1475 1470 1465 1463 1463 1463 1467 1466 1464 1465 1477 1476 1490 1462 1467 1466 1467 1468 1470 1470 1470
1502 1502 1502 1502 1500 1499 1499 1499 1499 1500 1496 1494 1491 1490 1490 1489 1489 1486 1484 1481 1480 1478 1477 1471 1464 1456 1457 1453 1456 1459 1464 1461 1471 1474 1474 1477 1466 1465 1466 1466 1467 1467 1467 1468
1499 1499 1499 1499 1499 1498 1497 1497 1497 1498 1499 1489 1491 1490 1489 1488 1486 1483 1479 1477 1475 1474 1472 1466 1465 1452 1446 1454 1458 1455 1460 1460 1450 1477 1476 1481 1455 1457 1460 1462 1471 1461 1464 1466
1497 1496 1496 1496 1496 1496 1496 1496 1496 1497 1495 1488 1488 1488 1487 1487 1487 1485 1480 1477 1473 1471 1467 1464 1458 1452 1442 1454 1457 1457 1456 1457 1460 1463 1463 1460 1453 1457 1461 1473 1466 1456 1460 1465
1494 1493 1493 1493 1494 1494 1494 1494 1494 1495 1491 1485 1483 1484 1485 1485 1486 1485 1480 1475 1473 1470 1467 1465 1452 1451 1441 1443 1442 1449 1445 1452 1458 1467 1469 1468 1451 1457 1458 1452 1454 1456 1459 1462
1492 1491 1490 1490 1491 1492 1492 1492 1491 1491 1489 1481 1477 1477 1477 1479 1480 1482 1481 1478 1477 1473 1469 1466 1463 1450 1444 1433 1444 1443 1449 1433 1444 1447 1444 1443 1444 1443 1447 1450 1452 1455 1458 1461
1490 1489 1488 1487 1489 1490 1490 1490 1489 1488 1484 1475 1470 1466 1468 1466 1470 1474 1479 1475 1474 1472 1472 1471 1465 1462 1448 1442 1441 1443 1439 1440 1440 1443 1439 1441 1444 1444 1445 1449 1452 1454 1456 1459
1487 1486 1485 1485 1486 1487 1487 1486 1486 1486 1484 1478 1467 1463 1463 1462 1462 1464 1465 1469 1470 1471 1471 1468 1466 1459 1453 1444 1442 1441 1441 1444 1440 1437 1438 1441 1445 1443 1445 1448 1451 1454 1455 1458
1484 1483 1483 1482 1482 1484 1483 1482 1482 1482 1486 1478 1466 1460 1456 1455 1453 1457 1462 1466 1469 1470 1470 1468 1463 1458 1456 1446 1446 1441 1438 1436 1434 1427 1427 1428 1432 1438 1443 1447 1450 1453 1454 1456
1481 1481 1480 1479 1480 1481 1481 1479 1478 1477 1478 1479 1468 1459 1454 1454 1452 1454 1458 1462 1466 1469 1468 1464 1460 1459 1458 1447 1438 1432 1430 1431 1433 1432 1428 1430 1432 1435 1441 1446 1449 1451 1453 1455
1478 1478 1478 1478 1478 1479 1480 1478 1476 1475 1476 1476 1469 1460 1455 1454 1453 1455 1458 1461 1463 1464 1464 1463 1459 1458 1457 1445 1436 1431 1433 1430 1430 1430 1432 1434 1435 1435 1441 1446 1448 1451 1453 1455
1476 1476 1476 1476 1476 1476 1474 1473 1473 1474 1475 1475 1472 1461 1456 1453 1453 1454 1456 1458 1459 1460 1460 1458 1457 1455 1450 1440 1430 1426 1431 1433 1431 1431 1433 1433 1435 1436 1441 1446 1448 1450 1453 1455
1473 1474 1474 1474 1473 1472 1472 1471 1471 1472 1477 1472 1467 1462 1457 1453 1451 1451 1454 1455 1456 1456 1455 1454 1454 1447 1441 1430 1430 1433 1433 1435 1436 1434 1434 1433 1436 1437 1441 1444 1448 1451 1454 1456
1472 1473 1473 1471 1471 1470 1471 1470 1471 1471 1470 1469 1465 1461 1458 1456 1451 1449 1451 1450 1450 1450 1448 1449 1446 1437 1430 1427 1426 1428 1430 1428 1428 1428 1430 1433 1436 1438 1440 1443 1447 1451 1453 1455
1472 1472 1471 1470 1469 1468 1468 1468 1468 1468 1466 1463 1459 1458 1456 1453 1453 1449 1448 1444 1444 1443 1442 1443 1437 1431 1421 1422 1422 1422 1425 1427 1427 1428 1430 1433 1436 1438 1440 1444 1448 1450 1452 1455
1472 1471 1470 1468 1468 1467 1468 1464 1463 1462 1457 1457 1456 1454 1453 1451 1450 1449 1446 1441 1442 1439 1441 1440 1432 1421 1420 1417 1413 1414 1418 1422 1425 1427 1428 1431 1435 1437 1440 1443 1446 1449 1452 1454
1471 1471 1470 1469 1468 1468 1463 1459 1456 1455 1454 1455 1454 1451 1450 1449 1448 1446 1444 1440 1437 1438 1436 1429 1422 1422 1419 1415 1411 1409 1412 1416 1419 1423 1427 1430 1432 1435 1438 1441 1444 1447 1450 1453
1471 1471 1470 1466 1462 1458 1455 1454 1455 1454 1454 1454 1453 1450 1447 1445 1445 1441 1437 1436 1437 1435 1430 1427 1424 1422 1419 1415 1412 1409 1410 1412 1415 1420 1424 1426 1428 1429 1434 1439 1442 1445 1448 1451
1470 1469 1467 1460 1458 1456 1455 1454 1453 1452 1451 1451 1450 1448 1447 1443 1441 1440 1437 1435 1433 1429 1431 1431 1426 1422 1420 1417 1413 1410 1410 1412 1414 1417 1419 1422 1425 1426 1429 1433 1437 1442 1445 1448
1467 1466 1462 1457 1457 1454 1453 1452 1451 1448 1445 1443 1446 1444 1443 1443 1440 1438 1432 1431 1433 1434 1430 1428 1424 1420 1418 1417 1415 1412 1410 1412 1413 1414 1416 1418 1421 1423 1424 1428 1432 1436 1440 1443
1464 1460 1458 1458 1456 1454 1452 1450 1448 1448 1446 1444 1443 1441 1438 1441 1436 1433 1429 1431 1432 1431 1430 1426 1424 1421 1418 1415 1415 1413 1411 1410 1409 1410 1413 1416 1419 1421 1423 1425 1428 1431 1434 1437